Location: Unspecified
(32.5099°N, 80.0190°W)
Time: 11:54:45
(UTC-04:00)

CZ-3 Stage 3 - Visible Passes

Search period start: 29 April 2016 00:00
Search period end: 09 May 2016 00:00
Orbit: 399 x 34805 km, 30.3° (Epoch: 28 April)

Date Brightness Start Highest point End Pass type
(mag) Time Alt. Az. Time Alt. Az. Time Alt. Az.
30 Apr 3.2 04:46:12 28° WSW 04:51:54 63° S 04:55:36 10° E visible
30 Apr 6.1 15:51:14 10° SSW 01:18:06 15° ESE 01:19:06 10° E visible
01 May 8.1 17:21:13 10° SE 20:36:15 21° SE 21:17:36 16° SE visible
03 May 3.2 04:38:02 29° WSW 04:43:34 65° S 04:47:15 10° E visible
03 May 6.1 15:45:06 10° SSW 01:09:55 15° E 01:10:51 10° E visible
04 May 7.9 17:08:03 10° SE 20:29:25 22° SE 21:13:37 15° ESE visible
06 May 3.2 04:29:48 29° WSW 04:35:12 67° S 04:38:54 10° E visible
06 May 6.1 15:39:11 10° SSW 01:01:41 15° E 01:02:36 10° E visible
07 May 7.8 16:54:50 10° SE 20:22:27 23° SE 21:09:42 13° ESE visible
